Time,TemperatureF,DewpointF,PressureIn,WindDirection,WindDirectionDegrees,WindSpeedMPH,WindSpeedGustMPH,Humidity,HourlyPrecipIn,Conditions,Clouds,dailyrainin,SoftwareType,DateUTC
2013-01-26 00:02:00,14.0,3.0,-100.00,North,0,11.0,12.0,59,0.00,,,-99.99,,2013-01-26 06:02:00,
2013-01-26 00:12:00,14.0,3.0,-100.00,NNW,340,9.0,14.0,60,0.00,,,-99.99,,2013-01-26 06:12:00,
2013-01-26 00:21:00,14.0,3.0,-100.00,NNW,340,9.0,12.0,61,0.00,,,-99.99,,2013-01-26 06:21:00,
2013-01-26 00:31:00,13.0,3.0,-100.00,NNW,345,10.0,13.0,62,0.00,,,-99.99,,2013-01-26 06:31:00,
2013-01-26 00:41:00,13.0,3.0,-100.00,NNW,345,10.0,13.0,62,0.00,,,-99.99,,2013-01-26 06:41:00,
2013-01-26 00:51:00,12.0,3.0,-100.00,North,0,7.0,12.0,64,0.00,,,-99.99,,2013-01-26 06:51:00,
2013-01-26 01:02:00,12.0,3.0,-100.00,North,0,7.0,12.0,64,0.00,,,-99.99,,2013-01-26 07:02:00,
2013-01-26 01:12:00,12.0,3.0,-100.00,North,355,7.0,10.0,64,0.00,,,-99.99,,2013-01-26 07:12:00,
2013-01-26 01:21:00,12.0,3.0,-100.00,North,10,7.0,10.0,65,0.00,,,-99.99,,2013-01-26 07:21:00,
2013-01-26 01:33:00,12.0,3.0,-100.00,North,5,6.0,9.0,66,0.00,,,-99.99,,2013-01-26 07:33:00,
2013-01-26 01:41:00,12.0,3.0,-100.00,North,5,6.0,9.0,66,0.00,,,-99.99,,2013-01-26 07:41:00,
2013-01-26 01:51:00,11.0,3.0,-100.00,North,10,8.0,11.0,67,0.00,,,-99.99,,2013-01-26 07:51:00,
2013-01-26 02:02:00,11.0,3.0,-100.00,North,10,8.0,11.0,67,0.00,,,-99.99,,2013-01-26 08:02:00,
2013-01-26 02:11:00,12.0,3.0,-100.00,North,0,6.0,9.0,67,0.00,,,-99.99,,2013-01-26 08:11:00,
2013-01-26 02:21:00,11.0,3.0,-100.00,North,0,7.0,9.0,67,0.00,,,-99.99,,2013-01-26 08:21:00,
2013-01-26 02:32:00,11.0,2.0,-100.00,North,0,6.0,9.0,68,0.00,,,-99.99,,2013-01-26 08:32:00,
2013-01-26 02:42:00,11.0,2.0,-100.00,North,0,6.0,9.0,68,0.00,,,-99.99,,2013-01-26 08:42:00,
2013-01-26 02:53:00,11.0,3.0,-100.00,North,0,6.0,9.0,69,0.00,,,-99.99,,2013-01-26 08:53:00,
2013-01-26 03:02:00,11.0,3.0,-100.00,North,0,6.0,9.0,69,0.00,,,-99.99,,2013-01-26 09:02:00,
2013-01-26 03:11:00,11.0,3.0,-100.00,North,355,6.0,9.0,69,0.00,,,-99.99,,2013-01-26 09:11:00,
2013-01-26 03:22:00,10.0,2.0,-100.00,North,0,7.0,9.0,69,0.00,,,-99.99,,2013-01-26 09:22:00,
2013-01-26 03:32:00,10.0,2.0,-100.00,NNE,15,6.0,9.0,70,0.00,,,-99.99,,2013-01-26 09:32:00,
2013-01-26 03:42:00,10.0,2.0,-100.00,NNE,15,6.0,9.0,70,0.00,,,-99.99,,2013-01-26 09:42:00,
2013-01-26 03:51:00,9.0,2.0,-100.00,NNE,20,8.0,9.0,71,0.00,,,-99.99,,2013-01-26 09:51:00,
2013-01-26 04:01:00,9.0,2.0,-100.00,NNE,20,8.0,9.0,71,0.00,,,-99.99,,2013-01-26 10:01:00,
2013-01-26 04:11:00,9.0,2.0,-100.00,North,10,8.0,11.0,71,0.00,,,-99.99,,2013-01-26 10:11:00,
2013-01-26 04:21:00,9.0,2.0,-100.00,North,10,7.0,11.0,72,0.00,,,-99.99,,2013-01-26 10:21:00,
2013-01-26 04:31:00,9.0,2.0,-100.00,North,10,5.0,9.0,72,0.00,,,-99.99,,2013-01-26 10:31:00,
2013-01-26 04:42:00,9.0,2.0,-100.00,North,10,5.0,9.0,72,0.00,,,-99.99,,2013-01-26 10:42:00,
2013-01-26 04:52:00,9.0,2.0,-100.00,North,0,4.0,6.0,73,0.00,,,-99.99,,2013-01-26 10:52:00,
2013-01-26 05:01:00,9.0,2.0,-100.00,North,0,4.0,6.0,73,0.00,,,-99.99,,2013-01-26 11:01:00,
2013-01-26 05:12:00,9.0,2.0,-100.00,North,0,6.0,7.0,73,0.00,,,-99.99,,2013-01-26 11:12:00,
2013-01-26 05:22:00,9.0,2.0,-100.00,North,0,7.0,8.0,73,0.00,,,-99.99,,2013-01-26 11:22:00,
2013-01-26 05:32:00,8.0,2.0,-100.00,NNW,330,6.0,9.0,73,0.00,,,-99.99,,2013-01-26 11:32:00,
2013-01-26 05:42:00,8.0,2.0,-100.00,NNW,330,6.0,9.0,73,0.00,,,-99.99,,2013-01-26 11:42:00,
2013-01-26 05:52:00,9.0,2.0,-100.00,North,0,4.0,7.0,73,0.00,,,-99.99,,2013-01-26 11:52:00,
2013-01-26 06:02:00,9.0,2.0,-100.00,North,0,4.0,7.0,73,0.00,,,-99.99,,2013-01-26 12:02:00,
2013-01-26 06:12:00,8.0,2.0,-100.00,NNE,15,5.0,6.0,73,0.00,,,-99.99,,2013-01-26 12:12:00,
2013-01-26 06:22:00,8.0,1.0,-100.00,NNE,30,5.0,6.0,74,0.00,,,-99.99,,2013-01-26 12:22:00,
2013-01-26 06:33:00,7.0,1.0,-100.00,NNE,25,4.0,6.0,74,0.00,,,-99.99,,2013-01-26 12:33:00,
2013-01-26 06:42:00,7.0,1.0,-100.00,NNE,25,4.0,6.0,74,0.00,,,-99.99,,2013-01-26 12:42:00,
2013-01-26 06:52:00,8.0,1.0,-100.00,North,0,3.0,6.0,74,0.00,,,-99.99,,2013-01-26 12:52:00,
2013-01-26 07:03:00,8.0,1.0,-100.00,North,0,3.0,6.0,74,0.00,,,-99.99,,2013-01-26 13:03:00,
2013-01-26 07:12:00,8.0,2.0,-100.00,North,10,2.0,4.0,75,0.00,,,-99.99,,2013-01-26 13:12:00,
2013-01-26 07:22:00,8.0,2.0,-100.00,North,10,3.0,3.0,75,0.00,,,-99.99,,2013-01-26 13:22:00,
2013-01-26 07:32:00,7.0,1.0,-100.00,NNE,25,4.0,5.0,75,0.00,,,-99.99,,2013-01-26 13:32:00,
2013-01-26 07:42:00,7.0,1.0,-100.00,NNE,25,4.0,5.0,75,0.00,,,-99.99,,2013-01-26 13:42:00,
2013-01-26 07:52:00,8.0,2.0,-100.00,NE,40,4.0,4.0,75,0.00,,,-99.99,,2013-01-26 13:52:00,
2013-01-26 08:03:00,8.0,2.0,-100.00,NE,40,4.0,4.0,75,0.00,,,-99.99,,2013-01-26 14:03:00,
2013-01-26 08:11:00,8.0,2.0,-100.00,West,280,0.0,4.0,76,0.00,,,-99.99,,2013-01-26 14:11:00,
2013-01-26 08:21:00,9.0,3.0,-100.00,NE,40,2.0,4.0,76,0.00,,,-99.99,,2013-01-26 14:21:00,
2013-01-26 08:32:00,9.0,3.0,-100.00,NE,50,3.0,5.0,75,0.00,,,-99.99,,2013-01-26 14:32:00,
2013-01-26 08:43:00,9.0,3.0,-100.00,NE,50,3.0,5.0,75,0.00,,,-99.99,,2013-01-26 14:43:00,
2013-01-26 08:52:00,11.0,4.0,-100.00,NNE,30,2.0,5.0,74,0.00,,,-99.99,,2013-01-26 14:52:00,
2013-01-26 09:03:00,11.0,4.0,-100.00,NNE,30,2.0,5.0,74,0.00,,,-99.99,,2013-01-26 15:03:00,
2013-01-26 09:12:00,12.0,5.0,-100.00,ENE,65,5.0,6.0,73,0.00,,,-99.99,,2013-01-26 15:12:00,
2013-01-26 09:22:00,13.0,6.0,-100.00,East,85,2.0,6.0,73,0.00,,,-99.99,,2013-01-26 15:22:00,
2013-01-26 09:32:00,15.0,7.0,-100.00,ESE,115,2.0,6.0,70,0.00,,,-99.99,,2013-01-26 15:32:00,
2013-01-26 09:43:00,15.0,7.0,-100.00,ESE,115,2.0,6.0,70,0.00,,,-99.99,,2013-01-26 15:43:00,
2013-01-26 09:52:00,17.0,8.0,-100.00,SE,125,4.0,7.0,67,0.00,,,-99.99,,2013-01-26 15:52:00,
2013-01-26 10:02:00,17.0,8.0,-100.00,SE,125,4.0,7.0,67,0.00,,,-99.99,,2013-01-26 16:02:00,
2013-01-26 10:12:00,17.0,7.0,-100.00,SE,135,5.0,8.0,64,0.00,,,-99.99,,2013-01-26 16:12:00,
2013-01-26 10:22:00,18.0,7.0,-100.00,SE,140,6.0,8.0,63,0.00,,,-99.99,,2013-01-26 16:22:00,
2013-01-26 10:32:00,20.0,8.0,-100.00,South,185,6.0,8.0,59,0.00,,,-99.99,,2013-01-26 16:32:00,
2013-01-26 10:42:00,20.0,8.0,-100.00,South,185,6.0,8.0,59,0.00,,,-99.99,,2013-01-26 16:42:00,
2013-01-26 10:53:00,21.0,8.0,-100.00,South,185,4.0,6.0,55,0.00,,,-99.99,,2013-01-26 16:53:00,
2013-01-26 11:03:00,21.0,8.0,-100.00,South,185,4.0,6.0,55,0.00,,,-99.99,,2013-01-26 17:03:00,
2013-01-26 11:12:00,22.0,8.0,-100.00,SSW,195,1.0,7.0,54,0.00,,,-99.99,,2013-01-26 17:12:00,
2013-01-26 11:22:00,22.0,8.0,-100.00,South,180,3.0,6.0,52,0.00,,,-99.99,,2013-01-26 17:22:00,
2013-01-26 11:33:00,23.0,7.0,-100.00,South,175,3.0,9.0,50,0.00,,,-99.99,,2013-01-26 17:33:00,
2013-01-26 11:42:00,23.0,7.0,-100.00,South,175,3.0,9.0,50,0.00,,,-99.99,,2013-01-26 17:42:00,
2013-01-26 11:52:00,24.0,7.0,-100.00,WSW,245,5.0,7.0,47,0.00,,,-99.99,,2013-01-26 17:52:00,
2013-01-26 12:02:00,24.0,7.0,-100.00,WSW,245,5.0,7.0,47,0.00,,,-99.99,,2013-01-26 18:02:00,
2013-01-26 12:12:00,25.0,7.0,-100.00,South,175,6.0,8.0,46,0.00,,,-99.99,,2013-01-26 18:12:00,
2013-01-26 12:22:00,24.0,6.0,-100.00,SW,225,4.0,8.0,45,0.00,,,-99.99,,2013-01-26 18:22:00,
2013-01-26 12:33:00,25.0,6.0,-100.00,SSW,195,1.0,8.0,44,0.00,,,-99.99,,2013-01-26 18:33:00,
2013-01-26 12:42:00,25.0,6.0,-100.00,SSW,205,2.0,8.0,43,0.00,,,-99.99,,2013-01-26 18:42:00,
2013-01-26 12:52:00,27.0,7.0,-100.00,SW,215,2.0,7.0,42,0.00,,,-99.99,,2013-01-26 18:52:00,
2013-01-26 13:01:00,26.0,6.0,-100.00,SSE,150,5.0,9.0,41,0.00,,,-99.99,,2013-01-26 19:01:00,
2013-01-26 13:03:00,27.0,7.0,-100.00,SW,215,2.0,7.0,42,0.00,,,-99.99,,2013-01-26 19:03:00,
2013-01-26 13:12:00,26.0,6.0,-100.00,South,175,5.0,9.0,41,0.00,,,-99.99,,2013-01-26 19:12:00,
2013-01-26 13:22:00,26.0,6.0,-100.00,SSE,150,5.0,9.0,41,0.00,,,-99.99,,2013-01-26 19:22:00,
2013-01-26 13:32:00,26.0,6.0,-100.00,SSE,150,5.0,9.0,41,0.00,,,-99.99,,2013-01-26 19:32:00,
2013-01-26 13:42:00,26.0,6.0,-100.00,SSE,150,5.0,9.0,41,0.00,,,-99.99,,2013-01-26 19:42:00,
2013-01-26 13:52:00,26.0,6.0,-100.00,SSE,150,5.0,9.0,41,0.00,,,-99.99,,2013-01-26 19:52:00,
2013-01-26 14:22:00,29.0,7.0,-100.00,SSW,200,4.0,9.0,39,0.00,,,-99.99,,2013-01-26 20:22:00,
2013-01-26 14:32:00,29.0,7.0,-100.00,SSW,200,4.0,9.0,38,0.00,,,-99.99,,2013-01-26 20:32:00,
2013-01-26 14:42:00,29.0,7.0,-100.00,SSW,200,4.0,9.0,38,0.00,,,-99.99,,2013-01-26 20:42:00,
2013-01-26 14:52:00,29.0,7.0,-100.00,SW,220,6.0,9.0,38,0.00,,,-99.99,,2013-01-26 20:52:00,
2013-01-26 15:02:00,29.0,7.0,-100.00,SW,220,6.0,9.0,38,0.00,,,-99.99,,2013-01-26 21:02:00,
2013-01-26 15:12:00,30.0,8.0,-100.00,SW,230,5.0,9.0,38,0.00,,,-99.99,,2013-01-26 21:12:00,
2013-01-26 15:22:00,30.0,7.0,-100.00,SSW,210,6.0,11.0,38,0.00,,,-99.99,,2013-01-26 21:22:00,
2013-01-26 15:32:00,28.0,6.0,-100.00,SSE,165,5.0,9.0,39,0.00,,,-99.99,,2013-01-26 21:32:00,
2013-01-26 15:42:00,28.0,6.0,-100.00,SSE,165,5.0,9.0,39,0.00,,,-99.99,,2013-01-26 21:42:00,
2013-01-26 15:51:00,29.0,8.0,-100.00,SSW,195,6.0,11.0,39,0.00,,,-99.99,,2013-01-26 21:51:00,
2013-01-26 16:01:00,29.0,8.0,-100.00,SSW,195,6.0,11.0,39,0.00,,,-99.99,,2013-01-26 22:01:00,
2013-01-26 16:11:00,30.0,8.0,-100.00,SSW,195,7.0,9.0,38,0.00,,,-99.99,,2013-01-26 22:11:00,
2013-01-26 16:21:00,30.0,7.0,-100.00,South,190,7.0,11.0,38,0.00,,,-99.99,,2013-01-26 22:21:00,
2013-01-26 16:32:00,29.0,7.0,-100.00,South,170,7.0,9.0,39,0.00,,,-99.99,,2013-01-26 22:32:00,
2013-01-26 16:42:00,29.0,7.0,-100.00,South,170,7.0,9.0,39,0.00,,,-99.99,,2013-01-26 22:42:00,
2013-01-26 16:51:00,29.0,8.0,-100.00,South,170,6.0,9.0,39,0.00,,,-99.99,,2013-01-26 22:51:00,
2013-01-26 17:01:00,29.0,8.0,-100.00,South,170,6.0,9.0,39,0.00,,,-99.99,,2013-01-26 23:01:00,
2013-01-26 17:11:00,29.0,8.0,-100.00,South,190,7.0,9.0,39,0.00,,,-99.99,,2013-01-26 23:11:00,
2013-01-26 17:22:00,29.0,8.0,-100.00,SSE,165,5.0,9.0,40,0.00,,,-99.99,,2013-01-26 23:22:00,
2013-01-26 17:32:00,28.0,8.0,-100.00,SSE,165,6.0,9.0,42,0.00,,,-99.99,,2013-01-26 23:32:00,
2013-01-26 17:41:00,28.0,8.0,-100.00,SSE,165,6.0,9.0,42,0.00,,,-99.99,,2013-01-26 23:41:00,
2013-01-26 17:52:00,27.0,8.0,-100.00,SSE,165,5.0,9.0,43,0.00,,,-99.99,,2013-01-26 23:52:00,
2013-01-26 18:02:00,27.0,8.0,-100.00,SSE,165,5.0,9.0,43,0.00,,,-99.99,,2013-01-27 00:02:00,
2013-01-26 18:11:00,27.0,8.0,-100.00,SSE,150,7.0,9.0,44,0.00,,,-99.99,,2013-01-27 00:11:00,
2013-01-26 18:21:00,27.0,8.0,-100.00,SSE,165,6.0,9.0,45,0.00,,,-99.99,,2013-01-27 00:21:00,
2013-01-26 18:32:00,27.0,9.0,-100.00,SSE,165,6.0,8.0,46,0.00,,,-99.99,,2013-01-27 00:32:00,
2013-01-26 18:41:00,27.0,9.0,-100.00,SSE,165,6.0,8.0,46,0.00,,,-99.99,,2013-01-27 00:41:00,
2013-01-26 18:51:00,28.0,10.0,-100.00,South,170,7.0,10.0,46,0.00,,,-99.99,,2013-01-27 00:51:00,
2013-01-26 19:01:00,28.0,10.0,-100.00,South,170,7.0,10.0,46,0.00,,,-99.99,,2013-01-27 01:01:00,
2013-01-26 19:11:00,28.0,10.0,-100.00,South,170,7.0,11.0,46,0.00,,,-99.99,,2013-01-27 01:11:00,
2013-01-26 19:22:00,28.0,10.0,-100.00,South,175,9.0,11.0,46,0.00,,,-99.99,,2013-01-27 01:22:00,
2013-01-26 19:32:00,28.0,10.0,-100.00,South,170,7.0,12.0,46,0.00,,,-99.99,,2013-01-27 01:32:00,
2013-01-26 19:41:00,28.0,10.0,-100.00,South,170,7.0,12.0,46,0.00,,,-99.99,,2013-01-27 01:41:00,
2013-01-26 19:51:00,28.0,10.0,-100.00,South,180,6.0,12.0,46,0.00,,,-99.99,,2013-01-27 01:51:00,
2013-01-26 20:01:00,28.0,10.0,-100.00,South,180,6.0,12.0,46,0.00,,,-99.99,,2013-01-27 02:01:00,
2013-01-26 20:11:00,28.0,10.0,-100.00,South,175,10.0,13.0,46,0.00,,,-99.99,,2013-01-27 02:11:00,
2013-01-26 20:21:00,28.0,10.0,-100.00,South,175,7.0,13.0,46,0.00,,,-99.99,,2013-01-27 02:21:00,
2013-01-26 20:31:00,28.0,10.0,-100.00,South,180,9.0,13.0,46,0.00,,,-99.99,,2013-01-27 02:31:00,
2013-01-26 20:41:00,28.0,10.0,-100.00,South,180,9.0,13.0,46,0.00,,,-99.99,,2013-01-27 02:41:00,
2013-01-26 20:52:00,28.0,10.0,-100.00,South,175,11.0,15.0,45,0.00,,,-99.99,,2013-01-27 02:52:00,
2013-01-26 21:02:00,28.0,10.0,-100.00,South,175,11.0,15.0,45,0.00,,,-99.99,,2013-01-27 03:02:00,
2013-01-26 21:11:00,28.0,10.0,-100.00,South,190,11.0,14.0,45,0.00,,,-99.99,,2013-01-27 03:11:00,
2013-01-26 21:21:00,28.0,10.0,-100.00,South,185,12.0,16.0,45,0.00,,,-99.99,,2013-01-27 03:21:00,
2013-01-26 21:32:00,28.0,10.0,-100.00,South,185,11.0,15.0,45,0.00,,,-99.99,,2013-01-27 03:32:00,
2013-01-26 21:42:00,28.0,10.0,-100.00,South,185,11.0,15.0,45,0.00,,,-99.99,,2013-01-27 03:42:00,
2013-01-26 21:51:00,28.0,10.0,-100.00,South,185,11.0,17.0,45,0.00,,,-99.99,,2013-01-27 03:51:00,
2013-01-26 22:01:00,28.0,10.0,-100.00,South,185,11.0,17.0,45,0.00,,,-99.99,,2013-01-27 04:01:00,
2013-01-26 22:11:00,28.0,10.0,-100.00,South,180,12.0,17.0,46,0.00,,,-99.99,,2013-01-27 04:11:00,
2013-01-26 22:21:00,28.0,10.0,-100.00,SSW,195,9.0,19.0,46,0.00,,,-99.99,,2013-01-27 04:21:00,
2013-01-26 22:32:00,28.0,10.0,-100.00,South,190,10.0,19.0,46,0.00,,,-99.99,,2013-01-27 04:32:00,
2013-01-26 22:41:00,28.0,10.0,-100.00,South,190,10.0,19.0,46,0.00,,,-99.99,,2013-01-27 04:41:00,
2013-01-26 22:51:00,28.0,10.0,-100.00,South,185,12.0,16.0,46,0.00,,,-99.99,,2013-01-27 04:51:00,
2013-01-26 23:03:00,28.0,10.0,-100.00,South,185,12.0,16.0,46,0.00,,,-99.99,,2013-01-27 05:03:00,
2013-01-26 23:12:00,28.0,10.0,-100.00,South,185,11.0,14.0,46,0.00,,,-99.99,,2013-01-27 05:12:00,
2013-01-26 23:22:00,28.0,10.0,-100.00,SSW,200,9.0,14.0,47,0.00,,,-99.99,,2013-01-27 05:22:00,
2013-01-26 23:32:00,28.0,11.0,-100.00,SSW,205,10.0,16.0,47,0.00,,,-99.99,,2013-01-27 05:32:00,
2013-01-26 23:41:00,28.0,11.0,-100.00,SSW,205,10.0,16.0,47,0.00,,,-99.99,,2013-01-27 05:41:00,
2013-01-26 23:52:00,28.0,11.0,-100.00,SSW,205,10.0,17.0,47,0.00,,,-99.99,,2013-01-27 05:52:00,